Location: Albany
(42.6526°N, 73.7562°W)
Time: 04:41:46
(UTC+00:00)

NOSS 2-3 (E) - Pass Details

Date: 19 November 2019
Orbit: 595 x 1616 km, 63.4° (Epoch: 03 December)

Event Time Altitude Azimuth Distance (km) Brightness Sun altitude
Rises 22:14:31 0° 210° (SSW) 2,823 7.8 -8.5°
Reaches altitude 10° 22:16:39 10° 209° (SSW) 1,945 6.9 -8.9°
Maximum altitude 22:20:55 77° 124° (ESE) 671 3.6 -9.7°
Drops below altitude 10° 22:25:53 10° 38° (NE) 2,253 5.9 -10.5°
Enters shadow 22:26:19 - 38° (NE) 2,427 6.1 -10.6°
